[[{"header":{"parameterUnit":"m.s-1","parameterCategory":1,"la1":30.2991,"la2":30.254,"lo1":-89.0895,"lo2":-89.0444,"dy":0.0017,"dx":0.0017,"nx":28,"ny":28,"refTime":"2025-01-02T09:00:00:Z","depth":0,"parameterNumber":2,"parameterNumberName":"U-component_of_WINDS"},"data":[0,0,0,0,0,0,0,0,0,0,0,0,0,0,0,0,0,0,0,0,0,0,0,0,0,0,0,0,0,0,0,0,0,0,0,0,0,0,0,0,0,0,0,0,0,0,0,0,0,0,0,0,0,0,0,0,0,0,0.3214,0.3215,0,0.3261,0.3261,0.3262,0.3312,0.3313,0.3314,0.3314,0.3358,0.3359,0.3359,0,0,0,0,0,0,0,0,0,0,0,0,0,0.3165,0.3166,0.3214,0.3215,0.3215,0.3261,0.3261,0.3262,0.3312,0.3313,0.3314,0.3315,0.3358,0.3359,0.3359,0,0,0,0,0,0,0,0,0,0,0,0,0,0.3196,0.3166,0.3214,0.3246,0.3249,0.3261,0.3261,0.3262,0.3312,0.3313,0.3314,0.3315,0.3358,0.3359,0.3359,0.3342,0,0,0.3362,0.3362,0,0,0,0,0,0,0,0,0.3194,0.3198,0.324,0.3244,0.3247,0.3282,0.326,0.3289,0.3312,0.3288,0.3314,0.3316,0.3332,0.3335,0.3341,0.3344,0.3346,0.3362,0.3362,0.3363,0.3363,0,0,0,0,0,0,0,0.3192,0.3196,0.3232,0.3241,0.3245,0.3257,0.3262,0.3266,0.3303,0.329,0.3294,0.3299,0.3334,0.334,0.3342,0.3347,0.3362,0.3362,0.3363,0.3363,0.3339,0.3338,0,0,0,0,0,0,0.3186,0.3194,0.3231,0.3234,0.3223,0.3257,0.3263,0.327,0.3303,0.3309,0.3298,0.3301,0.3338,0.3341,0.3344,0.3326,0.3363,0.3363,0.3364,0.334,0.3338,0.3337,0,0,0,0,0,0,0.3185,0.3189,0.3229,0.3215,0.3221,0.3256,0.3263,0.327,0.3276,0.3309,0.3316,0.3298,0.3339,0.3343,0.3343,0.3329,0.3364,0.3364,0.3341,0.3339,0.3338,0.329,0,0,0,0,0,0,0.3183,0.3188,0.3182,0.3215,0.3222,0.3228,0.3263,0.327,0.3278,0.3283,0.3311,0.3316,0.334,0.3341,0.3343,0.333,0.3365,0.3342,0.334,0.3338,0.3293,0.3287,0.3282,0,0,0,0,0,0.3181,0.3166,0.3182,0.3186,0.3216,0.3227,0.3231,0.326,0.3277,0.3271,0.3292,0.3315,0.333,0.3341,0.3344,0.333,0.3343,0.3341,0.3339,0.3296,0.3288,0.3282,0,0,0,0,0,0,0.3129,0.3171,0.3189,0.3184,0.3202,0.3235,0.3229,0.3251,0.3263,0.3267,0.3301,0.3307,0.3302,0.3317,0.3328,0.3316,0.334,0.3338,0.3307,0.33,0.3294,0.3291,0.3365,0,0,0,0,0,0.3118,0.3124,0.316,0.3152,0.316,0.3193,0.3199,0.322,0.3239,0.3246,0.3267,0.3284,0.3292,0.3297,0.3307,0.3296,0.3302,0.3288,0.3283,0.3278,0.3275,0.3271,0.3265,0.3329,0.3329,0.3329,0,0,0.3093,0.3117,0.3118,0.3143,0.3159,0.3164,0.3199,0.3203,0.3206,0.3246,0.3248,0.3264,0.3285,0.3279,0.3278,0.3291,0.3259,0.3275,0.3271,0.3271,0.3268,0.3261,0.3256,0.3328,0.3328,0.3328,0,0,0.3051,0.307,0.3066,0.3082,0.3106,0.3128,0.3127,0.3158,0.317,0.3173,0.3203,0.3208,0.3221,0.3235,0.3244,0.3208,0.323,0.321,0.318,0.3175,0.317,0.3166,0.3153,0.3148,0.3208,0.3208,0.3207,0,0.3017,0.3027,0.306,0.3063,0.3072,0.3111,0.3106,0.312,0.3145,0.3151,0.3165,0.3184,0.32,0.3199,0.319,0.3196,0.3195,0.3206,0.3169,0.3165,0.3161,0.3149,0.3144,0.3205,0.3205,0.3206,0.3206,0,0.2984,0.299,0.2984,0.301,0.3018,0.3017,0.305,0.3054,0.3075,0.3095,0.3097,0.3118,0.3133,0.3135,0.3154,0.3135,0.3143,0.3162,0.3187,0.3152,0.3141,0.3136,0.3201,0.3202,0.3203,0.3204,0,0,0.2909,0.2955,0.2952,0.2964,0.2994,0.2999,0.3,0.3016,0.3019,0.3036,0.3036,0.3048,0.3067,0.3077,0.3098,0.3094,0.3064,0.3114,0.3115,0.3104,0.3044,0.3029,0.3023,0.3079,0.3078,0.3078,0.3042,0,0.2872,0.2876,0.2907,0.2902,0.2908,0.2945,0.2946,0.2964,0.2983,0.299,0.3011,0.3018,0.3043,0.3049,0.3047,0.3068,0.3052,0.3071,0.3079,0.3079,0.3072,0.3017,0.3001,0.2966,0.3038,0.3038,0.3037,0,0.2829,0.2844,0.2841,0.2872,0.2876,0.2876,0.2893,0.29,0.2921,0.2935,0.2947,0.2972,0.2973,0.2998,0.3,0.3012,0.3018,0.3028,0.3028,0.3029,0.3055,0.3016,0.2956,0.295,0.3031,0.3031,0.3032,0,0.2774,0.2794,0.2795,0.2804,0.2841,0.284,0.2855,0.2877,0.2885,0.29,0.2905,0.2919,0.2927,0.2937,0.2964,0.298,0.2964,0.299,0.2974,0.2974,0.2968,0.2968,0.2908,0.2973,0.2973,0.2973,0.2973,0,0.2728,0.2724,0.2771,0.2771,0.2767,0.2803,0.2798,0.2816,0.2836,0.284,0.2873,0.2875,0.2912,0.2918,0.294,0.2939,0.2942,0.2953,0.2958,0.2949,0.2948,0.2952,0.2955,0.2972,0.2972,0.2972,0.2973,0,0.2666,0.2697,0.27,0.2735,0.2744,0.274,0.2769,0.277,0.2792,0.2797,0.2799,0.2833,0.2842,0.2872,0.2888,0.2902,0.2894,0.2905,0.2887,0.2891,0.2873,0.2874,0.2812,0.2806,0.2876,0.2875,0.2874,0,0.2635,0.2633,0.2668,0.2674,0.2688,0.2696,0.2705,0.274,0.2747,0.2772,0.2769,0.2782,0.2794,0.2807,0.2832,0.2844,0.2856,0.2833,0.2858,0.2849,0.2855,0.2854,0.2854,0.2828,0.2827,0.2826,0.2825,0,0.2575,0.2591,0.2603,0.262,0.263,0.2645,0.2662,0.2664,0.2703,0.2709,0.272,0.2729,0.2747,0.2758,0.2775,0.279,0.2813,0.2818,0.2815,0.2805,0.2794,0.2799,0.2872,0.2819,0.2819,0.282,0.282,0.282,0.2527,0.2528,0.2553,0.2565,0.2582,0.2597,0.26,0.2623,0.2633,0.2651,0.267,0.2679,0.27,0.2726,0.2739,0.2745,0.2758,0.2753,0.2752,0.275,0.2746,0.2794,0.2748,0.2748,0.2749,0.2749,0.2749,0,0.2469,0.2488,0.2499,0.2522,0.2531,0.2555,0.2575,0.2581,0.2589,0.2608,0.2619,0.2631,0.2643,0.267,0.2683,0.2684,0.2695,0.2686,0.2686,0.2689,0.2734,0.2735,0.2677,0.2677,0.2677,0.2677,0.2677,0.2677,0.244,0.2442,0.2461,0.2471,0.2489,0.2499,0.2508,0.2522,0.2537,0.255,0.2561,0.2579,0.2601,0.2617,0.2628,0.2636,0.2639,0.2626,0.2637,0.2678,0.2685,0.2692,0.2693,0.2627,0.2627,0.2591,0.2591,0.259]},{"header":{"parameterUnit":"m.s-1","parameterCategory":1,"la1":30.2991,"la2":30.254,"lo1":-89.0895,"lo2":-89.0444,"dy":0.0017,"dx":0.0017,"nx":28,"ny":28,"refTime":"2025-01-02T09:00:00:Z","depth":0,"parameterNumber":3,"parameterNumberName":"V-component_of_WINDS"},"data":[0,0,0,0,0,0,0,0,0,0,0,0,0,0,0,0,0,0,0,0,0,0,0,0,0,0,0,0,0,0,0,0,0,0,0,0,0,0,0,0,0,0,0,0,0,0,0,0,0,0,0,0,0,0,0,0,0,0,-3.7419,-3.7419,0,-3.7441,-3.7442,-3.7442,-3.7372,-3.737,-3.7368,-3.7366,-3.7387,-3.739,-3.7392,0,0,0,0,0,0,0,0,0,0,0,0,0,-3.7316,-3.7318,-3.7419,-3.7419,-3.742,-3.7441,-3.7442,-3.7442,-3.7373,-3.737,-3.7368,-3.7365,-3.7386,-3.7389,-3.7392,0,0,0,0,0,0,0,0,0,0,0,0,0,-3.7352,-3.7319,-3.7419,-3.7388,-3.7385,-3.7441,-3.7442,-3.7442,-3.7373,-3.737,-3.7367,-3.7364,-3.7385,-3.7389,-3.7393,-3.7479,0,0,-3.7404,-3.7406,0,0,0,0,0,0,0,0,-3.735,-3.7356,-3.7392,-3.739,-3.7387,-3.7401,-3.7413,-3.7454,-3.7374,-3.7378,-3.7366,-3.7362,-3.7394,-3.7397,-3.7408,-3.748,-3.7481,-3.7405,-3.7407,-3.7409,-3.741,0,0,0,0,0,0,0,-3.7347,-3.7354,-3.7428,-3.7393,-3.739,-3.7372,-3.7374,-3.742,-3.7403,-3.7377,-3.7372,-3.7376,-3.7392,-3.7405,-3.7408,-3.7482,-3.7404,-3.7408,-3.741,-3.7412,-3.7628,-3.7631,0,0,0,0,0,0,-3.7349,-3.7353,-3.7427,-3.7428,-3.736,-3.7377,-3.7379,-3.74,-3.7403,-3.74,-3.7379,-3.7373,-3.74,-3.7404,-3.7408,-3.7512,-3.7408,-3.7412,-3.7414,-3.7625,-3.7629,-3.7632,0,0,0,0,0,0,-3.7347,-3.7356,-3.7426,-3.7389,-3.7397,-3.7382,-3.7406,-3.7402,-3.7414,-3.7404,-3.74,-3.7395,-3.7397,-3.7403,-3.7463,-3.7511,-3.7414,-3.7417,-3.762,-3.7626,-3.7631,-3.7718,0,0,0,0,0,0,-3.7345,-3.7356,-3.7389,-3.7391,-3.7399,-3.7481,-3.7409,-3.7405,-3.7421,-3.7413,-3.7418,-3.7415,-3.7395,-3.7458,-3.7467,-3.7515,-3.742,-3.7616,-3.7623,-3.7629,-3.7711,-3.7725,-3.7738,0,0,0,0,0,-3.7341,-3.7412,-3.7391,-3.74,-3.744,-3.7484,-3.7488,-3.7464,-3.7425,-3.7458,-3.7452,-3.7415,-3.7504,-3.7464,-3.7474,-3.7524,-3.7613,-3.7621,-3.7628,-3.7704,-3.7723,-3.7738,0,0,0,0,0,0,-3.7415,-3.7411,-3.7388,-3.7462,-3.7474,-3.7472,-3.7513,-3.7484,-3.7507,-3.7499,-3.7467,-3.7469,-3.7535,-3.7535,-3.749,-3.7609,-3.7552,-3.7562,-3.7606,-3.7624,-3.7637,-3.7636,-3.7423,0,0,0,0,0,-3.744,-3.7477,-3.7471,-3.7536,-3.7544,-3.7528,-3.7545,-3.7526,-3.7537,-3.7541,-3.7539,-3.7551,-3.7581,-3.7602,-3.763,-3.771,-3.7711,-3.7749,-3.7763,-3.7774,-3.7784,-3.7828,-3.7846,-3.7658,-3.7658,-3.7658,0,0,-3.7492,-3.7494,-3.7519,-3.7551,-3.7558,-3.7597,-3.7532,-3.7575,-3.7603,-3.7547,-3.7605,-3.7604,-3.7614,-3.7685,-3.7716,-3.7688,-3.7836,-3.7784,-3.7794,-3.7797,-3.7838,-3.7856,-3.7872,-3.7663,-3.7663,-3.7662,0,0,-3.7606,-3.7611,-3.7667,-3.7676,-3.7688,-3.7677,-3.7691,-3.7694,-3.7692,-3.7748,-3.7708,-3.7741,-3.7794,-3.7804,-3.7816,-3.7936,-3.7904,-3.7946,-3.8018,-3.8062,-3.8077,-3.809,-3.8134,-3.815,-3.7955,-3.7956,-3.7956,0,-3.7669,-3.7726,-3.7699,-3.7746,-3.7762,-3.7715,-3.7772,-3.7781,-3.7801,-3.7813,-3.7781,-3.7848,-3.7852,-3.7925,-3.7955,-3.7966,-3.7981,-3.7946,-3.8077,-3.8089,-3.8101,-3.8143,-3.816,-3.7961,-3.796,-3.796,-3.7959,0,-3.7803,-3.7843,-3.7887,-3.7909,-3.793,-3.7981,-3.7963,-3.7987,-3.7966,-3.7959,-3.8018,-3.8021,-3.8049,-3.8065,-3.8044,-3.8137,-3.8119,-3.8082,-3.8024,-3.8125,-3.8164,-3.8179,-3.7968,-3.7966,-3.7965,-3.7963,0,0,-3.7964,-3.7973,-3.7989,-3.8,-3.801,-3.8041,-3.809,-3.8119,-3.8141,-3.8156,-3.8198,-3.8245,-3.8212,-3.8226,-3.8206,-3.8244,-3.8341,-3.8203,-3.8202,-3.823,-3.8445,-3.8473,-3.8492,-3.832,-3.8323,-3.8325,-3.8444,0,-3.8078,-3.8164,-3.8143,-3.8228,-3.8265,-3.8222,-3.8265,-3.8277,-3.8271,-3.8302,-3.8295,-3.833,-3.8283,-3.8291,-3.8327,-3.8322,-3.8384,-3.8313,-3.8358,-3.836,-3.8358,-3.8512,-3.8542,-3.8654,-3.8459,-3.8462,-3.8463,0,-3.8222,-3.8245,-3.8335,-3.8341,-3.8356,-3.8396,-3.8421,-3.8451,-3.8463,-3.8457,-3.8474,-3.8447,-3.8496,-3.8438,-3.8506,-3.8458,-3.8475,-3.8476,-3.8479,-3.8483,-3.8419,-3.8522,-3.8689,-3.8707,-3.8487,-3.8485,-3.8483,0,-3.8332,-3.8386,-3.8447,-3.8457,-3.8465,-3.8495,-3.8499,-3.8508,-3.8528,-3.855,-3.8562,-3.859,-3.8605,-3.8627,-3.8608,-3.8567,-3.868,-3.8619,-3.8676,-3.8677,-3.8703,-3.8701,-3.8877,-3.8712,-3.8712,-3.8711,-3.8711,0,-3.8462,-3.8519,-3.8497,-3.8535,-3.8598,-3.8573,-3.8635,-3.8635,-3.8644,-3.8681,-3.8644,-3.8679,-3.8652,-3.8685,-3.8671,-3.8731,-3.8737,-3.8734,-3.873,-3.8738,-3.8739,-3.875,-3.8742,-3.8716,-3.8715,-3.8714,-3.8713,0,-3.8596,-3.8584,-3.8648,-3.8651,-3.8654,-3.87,-3.8703,-3.8738,-3.8731,-3.8778,-3.8788,-3.8776,-3.8813,-3.8797,-3.8835,-3.8826,-3.8903,-3.8887,-3.89,-3.8896,-3.8955,-3.895,-3.9144,-3.9169,-3.8987,-3.8989,-3.899,0,-3.8681,-3.8724,-3.8733,-3.8756,-3.8764,-3.8801,-3.8821,-3.8798,-3.882,-3.8839,-3.8872,-3.8906,-3.8933,-3.8995,-3.8989,-3.9019,-3.9005,-3.9071,-3.9009,-3.9017,-3.9008,-3.9006,-3.9011,-3.9084,-3.9086,-3.9088,-3.9089,0,-3.8833,-3.8825,-3.8856,-3.8885,-3.8911,-3.8933,-3.8951,-3.8972,-3.895,-3.8977,-3.9016,-3.9036,-3.9077,-3.9112,-3.9139,-3.9143,-3.9113,-3.9109,-3.9124,-3.9133,-3.9139,-3.9139,-3.8935,-3.9104,-3.9103,-3.9102,-3.9101,-3.91,-3.8945,-3.8983,-3.8996,-3.9032,-3.9044,-3.9062,-3.9096,-3.9094,-3.9126,-3.9158,-3.9143,-3.9188,-3.92,-3.9233,-3.9242,-3.9277,-3.9251,-3.9272,-3.9278,-3.9284,-3.9293,-3.9133,-3.9281,-3.9281,-3.9281,-3.928,-3.928,0,-3.9097,-3.9103,-3.9137,-3.9165,-3.9194,-3.9164,-3.9183,-3.921,-3.925,-3.9265,-3.9292,-3.9337,-3.9372,-3.937,-3.9401,-3.943,-3.9417,-3.9439,-3.9437,-3.9439,-3.9313,-3.9298,-3.9449,-3.9449,-3.9449,-3.9449,-3.9449,-3.9449,-3.9179,-3.9241,-3.9235,-3.9303,-3.9309,-3.9354,-3.9368,-3.9385,-3.9397,-3.945,-3.9479,-3.9477,-3.9486,-3.9518,-3.9548,-3.9547,-3.9561,-3.9589,-3.9582,-3.9465,-3.9448,-3.9432,-3.9417,-3.9591,-3.9592,-3.9705,-3.9706,-3.9707]}]]